Weather Roundup
Issued by NWS

Home | Current Version | Previous Version | Text Only | Print | Product List | Glossary On
Versions: 1 2 3 4 5 6 7 8 9 10 11 12 13 14 15 16 17 18 19 20 21 22 23 24 25 26 27 28 29 30 31 32 33 34 35 36 37 38 39 40 41 42 43 44 45 46 47 48 49 50
000
NZUS93 KARX 280859
HRRWXR

CURRENT HOURLY OBSERVATIONS ACROSS
MUCH OF THE UPPER MISSISSIPPI VALLEY
NATIONAL WEATHER SERVICE LA CROSSE WI
400 AM CDT MON JUL 28 2014


...SOUTHEAST MINNESOTA...


CITY           SKY/WX    TMP DP  RH WIND       PRES   REMARKS
ROCHESTER      CLOUDY    58  54  86 N5        30.16R
ROCHESTER/MAYO CLOUDY    60  53  77 CALM      30.15S
WINONA         MOCLDY    57  55  94 W3        30.13S
AUSTIN         CLOUDY    59  55  88 N3        30.16R
ALBERT LEA     MOCLDY    59  55  88 CALM      30.16S
DODGE CENTER   CLOUDY    59  57  94 CALM      30.16R
PRESTON        PTCLDY    55  55 100 N5        30.15S
OWATONNA       CLOUDY    61  55  82 W5        30.16R
FARIBAULT      CLOUDY    64  55  72 CALM      30.16S
$$

...ELSEWHERE IN MINNESOTA...


CITY           SKY/WX    TMP DP  RH WIND       PRES   REMARKS
MINNEAPOLIS    CLOUDY    64  57  78 NW7       30.15S
INTNL FALLS    PTCLDY    47  45  93 CALM      30.17R
DULUTH         CLOUDY    57  53  86 N7        30.15R
RED WING       PTCLDY    57  55  94 CALM      30.13S
REDWOOD FALLS  CLOUDY    62  60  93 NW5       30.19R
MANKATO        CLOUDY    61  55  82 N5        30.17R
WORTHINGTON    PTCLDY    57  54  88 NW9       30.22S
FAIRMONT       CLOUDY    61  55  82 NW6       30.18R
$$

...SOUTHWEST WISCONSIN...


CITY           SKY/WX    TMP DP  RH WIND       PRES   REMARKS
LA CROSSE      CLEAR     56  52  86 N8        30.11R
PRAIRIE DU CHI CLEAR     60  51  74 NW7       30.09R
BOSCOBEL       CLEAR     58  52  80 CALM      30.09R
LONE ROCK      NOT AVBL
PLATTEVILLE    CLEAR     57  54  88 N8        30.07R
FORT MC COY    CLEAR     52  49  91 N3        30.11R
VIROQUA        FAIR      54  54  99 NW6       30.10S
WIS DELLS      CLEAR     54  51  88 NW6       30.06R
$$

...ELSEWHERE IN WISCONSIN...


CITY           SKY/WX    TMP DP  RH WIND       PRES   REMARKS
MILWAUKEE      PTCLDY    58  49  72 N13       29.97R
MADISON        CLEAR     57  51  80 NW7       30.04R
GREEN BAY      CLEAR     53  46  77 NW10      30.02R
EAU CLAIRE     NOT AVBL
BLACK RVR FLS  FAIR      47  47  99 CALM      30.11R
MEDFORD        CLEAR     49  48  94 NW6       30.11R
WAUSAU         CLEAR     52  50  93 NW8       30.08R
WIS RAPIDS     CLEAR     54  50  86 MISG      30.09R
MARSHFIELD     CLEAR     52  49  89 NW9       30.10R
RICE LAKE      CLOUDY    55  54  94 CALM      30.16R
$$

...NORTHEAST IOWA...


CITY           SKY/WX    TMP DP  RH WIND       PRES   REMARKS
WATERLOO       CLEAR     58  55  90 N8        30.11R
DUBUQUE        CLEAR     58  54  86 N9        30.07R
DECORAH        CLEAR     55  54  94 N7        30.12R
MASON CITY     PTCLDY    55  54  96 N7        30.17R
CHARLES CITY   CLOUDY    59  55  88 N7        30.14R
OELWEIN        CLEAR     57  55  94 N9        30.12R
$$

...ELSEWHERE IN IOWA...


CITY           SKY/WX    TMP DP  RH WIND       PRES   REMARKS
DES MOINES     MOCLDY    63  58  83 N10       30.12S
IOWA CITY      MOCLDY    65  59  81 N8        30.08R
FORT DODGE     CLEAR     59  55  88 N5        30.17R
MARSHALLTOWN   CLEAR     60  57  89 N7        30.12R
CEDAR RAPIDS   PTCLDY    61  57  87 N9        30.07R
$$

...NORTHERN ILLINOIS...


CITY           SKY/WX    TMP DP  RH WIND       PRES   REMARKS
CHICAGO-OHARE  CLEAR     62  49  62 N12       29.95R
DUPAGE         CLEAR     60  51  72 N12       29.96R
CHICAGO-MIDWAY PTCLDY    64  53  67 NW10      29.94R
MOLINE         CLOUDY    66  59  78 N10G17    30.03R
ROCKFORD       CLEAR     60  52  74 N12       30.03R
STERLING       CLEAR     61  54  77 N8G16     30.03R
PEORIA         CLOUDY    65  59  81 N6        30.00R
$$

NOTE: "FAIR" INDICATES FEW OR NO CLOUDS BELOW 12,000 FEET WITH NO
SIGNIFICANT WEATHER AND/OR OBSTRUCTIONS TO VISIBILITY. WIND
SPEEDS ARE IN MILES-PER-HOUR.



USA.gov is the U.S. government's official web portal to all federal, state and local government web resources and services.